Starlink 35539

operational
NORAD ID: 65915 Int'l Des: 2025-225 Owner: SPXS Country: US Constellation: starlink
NOTLE

About Starlink 35539

Description loading...

Live Position

Loading 3D Globe...

Upcoming Passes

Altitude History

Altitude vs Time

uPlot chart will show altitude changes over time

Two-Line Element Set

1 65915U 25225F 25340.89169726 .00023209 00000-0 58859-3 0 9998
2 65915 53.1576 237.2113 0001140 128.2624 231.8484 15.39612770 10197
Epoch: Dec 6, 2025 • Age: 15 hours

Current Status

Altitude 454.1 km
Velocity 7.64 km/s
Sub-Earth Point -22.02°S, 52.81°W
Launch Date Oct 8, 2025
Age 0.1 years
Type internet

Technical Details

Classification Payload
Mass 575.00 kg
Dry Mass 530.00 kg
Total Mass 575.00 kg
Length 0.30 m
Diameter 4.10 m
Span 29.00 m
Shape Box + pan
Manufacturer SPXS
Bus Type Starlink V2MO
Phase Status In Orbit
Owner/State SPXS/US

Large Constellations

Loading constellations...